Temperature
19 19 18 18 17 17 17 16 16 16 16 16 15 15 15 15 15 15 15 15 15 15 15 15 15 15 14 14 14 14 14 14 14 14 14 14 14 14 14 14 13 13 13
19 19 18 17 17 17 16 16 16 16 16 15 15 15 15 15 15 15 15 15 15 15 15 15 15 14 14 14 14 14 14 14 14 14 14 14 14 14 14 13 13 13 13
20 19 18 17 17 17 16 16 16 16 16 15 15 15 15 15 15 15 15 15 15 15 15 14 14 14 14 14 14 14 14 14 14 14 14 14 14 13 13 13 13 13 13
20 19 18 17 17 17 16 16 16 16 15 15 15 15 15 15 15 15 15 15 15 15 14 14 14 14 14 14 14 14 14 14 14 14 14 14 14 13 13 13 13 13 13
20 19 18 17 17 16 16 16 16 16 15 15 15 15 15 15 14 14 14 14 14 14 14 14 14 14 14 14 14 14 14 14 14 14 14 14 14 13 13 13 12 13 12
20 19 18 17 17 16 16 16 16 15 15 15 15 15 15 15 14 14 14 14 14 14 14 14 14 14 14 14 14 14 14 14 13 13 13 13 13 13 13 12 12 12 12
19 18 18 17 16 16 16 15 15 15 15 15 15 15 14 14 14 14 14 14 14 14 14 14 14 14 14 14 14 14 13 13 13 13 13 13 13 13 13 13 12 12 12
19 18 17 17 16 16 15 15 15 15 15 15 15 14 14 14 14 14 14 14 14 14 14 14 14 14 14 14 14 14 13 13 13 13 13 13 13 13 13 12 12 12 12
19 18 17 17 16 15 15 15 15 15 15 14 14 14 14 14 14 14 14 14 14 14 14 14 14 14 14 14 13 13 13 13 13 13 13 13 13 12 12 12 12 12 11
18 18 17 16 16 15 15 15 15 14 14 14 14 14 14 14 14 14 13 14 13 13 14 14 14 13 13 13 13 13 13 13 13 13 13 12 12 12 12 12 12 12 12
18 17 17 16 16 15 15 14 14 14 14 14 14 14 14 14 14 14 13 13 13 13 13 13 13 13 13 13 13 13 13 13 13 12 12 12 12 12 12 12 12 12 11
18 17 16 16 15 15 14 14 14 14 14 14 13 13 13 13 13 13 13 13 13 13 13 13 13 13 13 13 13 13 13 12 12 12 12 12 12 12 12 12 11 11 11
17 17 16 15 15 14 14 14 14 14 14 13 13 13 13 13 13 13 13 13 13 13 13 13 13 13 13 13 12 12 12 12 12 12 12 12 12 12 12 12 11 11 11
17 16 16 15 15 14 14 14 14 14 14 13 13 13 13 13 13 13 13 13 13 13 12 12 12 12 12 12 12 12 12 12 12 12 12 12 12 12 11 11 11 11 11
16 16 15 15 14 14 14 13 13 13 13 13 13 13 13 13 13 13 13 13 12 12 12 12 12 12 12 12 12 12 12 12 12 12 12 11 11 11 11 11 11 11 11
16 15 15 14 14 14 13 13 13 13 13 13 13 13 12 12 12 12 12 12 12 12 12 12 12 12 12 12 12 12 12 11 11 11 11 11 11 11 11 11 11 11 10
15 14 14 14 13 13 13 13 13 12 12 12 12 12 12 12 12 12 11 12 11 11 11 11 11 11 11 12 12 12 12 11 11 11 11 11 11 11 11 11 11 10 10
14 14 14 13 13 13 13 12 12 12 12 12 11 11 11 11 11 11 11 11 11 11 11 11 11 11 11 11 11 11 11 11 11 11 11 11 11 11 11 10 10 10 10
14 13 13 13 13 13 12 12 12 12 12 11 11 11 11 11 11 11 11 11 11 11 11 11 11 11 11 11 11 11 11 11 10 10 10 10 10 10 10 10 10 10 10
13 13 13 13 12 12 12 12 11 11 11 11 11 11 11 10 10 10 10 10 10 10 10 10 10 10 10 10 11 11 11 10 10 10 10 10 10 10 10 10 10 10 10
12 12 12 12 12 12 12 11 11 11 11 11 11 11 10 10 10 10 10 10 10 10 10 10 10 10 10 10 10 10 10 10 10 10 10 10 9 9 9 9 9 9 9
12 12 11 11 11 11 11 11 11 10 10 10 10 10 10 10 10 10 9 9 9 9 10 10 9 9 9 9 9 9 9 9 9 9 9 9 9 9 9 9 9 9 9
11 11 11 11 10 10 10 10 10 10 10 10 10 10 9 9 9 9 9 9 9 9 9 9 9 9 9 9 9 9 9 9 9 9 9 9 9 9 9 9 9 8 8
10 10 10 10 10 10 10 10 9 9 9 9 9 9 9 9 9 9 9 9 9 8 8 8 9 9 9 9 9 9 9 9 9 9 8 8 8 8 8 8 8 8 8
10 10 10 10 9 9 9 9 9 9 9 8 8 8 8 8 8 8 8 8 8 8 8 8 8 8 8 8 8 8 8 8 8 8 8 8 8 8 8 8 8 8 8
9 9 9 9 9 9 9 9 9 8 8 8 8 8 8 7 8 7 7 8 8 8 8 8 8 8 8 8 8 8 8 8 8 7 7 7 7 7 7 7 7 7 7
Wind_Speed
7 6 6 4 4 4 5 5 4 3 3 2 2 2 2 2 3 3 5 4 5 5 4 3 4 4 3 3 3 3 3 2 2 3 3 3 4 5 4 4 5 5 6
8 7 6 5 4 4 5 4 3 4 4 3 2 2 3 2 2 2 3 3 4 5 3 4 3 3 3 3 4 3 2 1 1 1 1 1 3 3 4 3 3 4 5
8 8 6 5 4 4 4 4 3 4 5 4 2 2 2 2 2 2 1 2 3 4 3 3 3 2 2 2 2 2 2 1 2 2 1 1 1 1 2 3 3 3 3
7 7 7 6 5 4 4 4 3 4 5 5 3 3 3 2 1 1 1 1 2 3 3 3 2 2 2 2 1 2 1 1 1 2 2 2 1 1 1 2 2 3 3
7 7 7 6 5 4 3 3 4 4 4 4 3 3 2 2 1 2 2 1 1 2 2 2 2 2 2 2 2 3 2 1 1 1 1 2 2 1 2 0 1 3 3
8 8 7 6 4 4 4 3 3 4 4 4 3 3 2 2 2 2 1 1 1 1 1 1 1 1 2 2 2 2 2 2 2 2 2 1 1 1 1 1 0 1 1
7 7 7 6 5 5 4 4 4 3 3 3 3 2 2 2 3 2 2 1 1 0 1 1 1 1 1 2 1 2 2 1 2 2 1 1 1 1 1 1 1 1 0
6 7 7 6 5 5 4 4 4 4 3 3 3 3 3 1 2 2 2 2 1 1 1 1 1 1 1 2 2 1 1 1 2 1 1 1 1 1 1 1 2 1 1
5 6 6 6 6 5 4 3 4 4 3 2 2 3 3 2 2 2 2 1 2 1 1 1 2 2 2 1 1 1 0 1 1 1 1 1 1 1 1 1 2 2 1
5 5 5 5 5 5 4 4 3 3 3 2 2 2 2 2 2 2 3 2 2 2 1 1 2 2 2 2 2 1 1 1 1 1 1 1 0 1 1 1 0 1 2
5 5 5 5 5 5 4 4 3 3 3 2 2 2 2 2 2 1 1 2 2 2 3 2 2 3 2 2 2 2 1 1 1 1 1 1 1 1 1 1 1 1 1
4 5 5 4 4 4 4 4 3 3 3 3 2 2 2 2 2 2 1 1 2 2 2 2 1 2 3 3 3 2 2 1 1 1 1 1 1 1 0 0 0 0 1
4 5 4 4 3 3 3 3 3 3 2 2 3 2 2 2 2 2 2 1 1 2 1 1 1 2 2 2 2 3 2 2 2 1 1 1 1 1 1 1 0 0 1
4 4 3 3 3 3 3 2 2 2 3 3 2 2 2 2 1 1 1 1 1 2 2 1 1 1 1 2 1 2 1 1 1 2 1 1 2 2 1 1 1 1 1
3 3 3 2 2 2 2 2 2 1 1 2 2 1 1 1 1 1 1 1 1 1 1 1 1 0 0 0 0 1 1 2 1 1 2 2 2 2 2 1 1 1 2
2 2 2 2 2 2 2 1 1 2 1 1 1 1 1 1 1 1 1 1 1 0 0 0 1 0 1 1 1 1 1 2 2 2 2 2 2 3 2 0 1 2 3
2 1 1 1 1 2 2 2 2 1 2 1 1 1 1 1 1 1 1 1 1 0 0 1 1 1 1 1 1 2 2 3 2 2 1 1 1 2 2 1 1 2 2
2 1 1 1 2 1 1 2 1 1 1 1 1 1 2 1 1 2 1 1 1 1 1 1 1 1 1 2 2 3 2 2 1 1 2 2 2 1 1 2 1 2 1
2 1 1 0 1 2 1 2 2 1 1 1 1 2 2 2 2 2 2 2 1 1 1 1 1 1 2 1 1 1 2 2 2 1 1 2 2 1 1 2 2 2 2
2 2 2 2 2 2 1 1 2 1 1 1 2 2 2 3 3 3 2 2 2 2 2 2 2 2 1 1 1 1 1 2 2 1 2 1 1 1 1 2 2 2 3
3 3 3 3 2 2 2 1 1 0 1 1 1 1 2 3 3 3 2 2 2 2 1 2 2 2 2 3 2 1 1 2 2 2 1 2 2 2 3 3 3 4 3
3 3 3 3 3 2 2 1 1 1 1 1 0 1 1 2 2 2 3 2 2 2 2 2 2 1 2 3 4 4 4 2 2 2 2 2 3 4 5 5 5 5 2
3 3 2 2 2 2 2 1 1 2 2 1 1 1 1 1 1 2 2 2 3 3 3 2 2 2 2 2 4 5 6 5 3 3 3 4 5 5 5 6 6 4 2
2 2 2 2 1 1 2 1 2 2 1 1 1 1 1 1 1 1 2 2 2 2 2 3 2 2 2 1 2 2 3 4 3 3 3 4 5 4 4 4 4 3 3
1 1 1 1 1 1 2 2 2 2 2 2 1 1 1 1 2 2 2 3 3 3 3 2 2 2 2 3 2 2 2 2 2 2 1 1 1 2 2 3 3 3 3
2 1 1 1 1 2 2 2 1 1 2 2 1 1 1 1 1 1 2 2 3 3 4 4 3 2 3 3 3 4 4 4 3 1 1 2 2 3 3 3 3 3 3
Wind_Direction
146 134 126 117 111 103 103 102 108 108 98 87 94 97 81 73 68 64 65 66 72 73 72 62 61 56 63 72 79 82 75 67 71 78 56 47 64 69 68 64 59 60 62
146 138 134 129 131 124 117 120 117 120 111 102 96 110 109 92 92 68 61 58 68 71 82 89 82 72 62 57 64 67 58 23 42 73 92 67 37 35 61 66 68 59 57
152 148 145 138 140 133 133 137 135 121 119 118 99 90 98 93 86 86 55 44 67 69 61 71 91 98 94 88 79 72 63 6 355 26 70 101 108 14 29 58 68 72 62
150 149 150 148 149 142 139 144 137 124 123 127 123 119 110 124 146 135 121 73 65 65 64 70 71 87 84 101 103 85 62 50 3 351 14 73 120 111 30 19 42 64 68
149 149 148 145 148 138 137 144 137 127 122 122 132 140 138 145 130 114 115 95 68 69 64 71 64 87 93 101 86 80 67 55 47 18 5 32 33 72 120 81 10 28 39
152 148 143 137 138 132 137 141 133 126 129 136 146 156 157 137 120 116 126 120 90 90 100 109 82 81 105 100 95 98 89 67 44 41 43 53 52 74 95 115 70 38 0
151 149 146 145 141 145 150 155 143 137 142 153 157 154 155 168 154 157 167 158 146 169 225 149 142 139 126 117 104 102 120 105 78 59 50 43 39 90 108 106 100 15 321
146 147 147 145 143 142 148 157 156 153 158 172 171 158 152 164 164 166 161 169 171 193 183 161 147 123 104 109 102 78 89 107 101 84 81 57 39 39 95 125 125 74 347
133 138 142 144 146 148 151 158 160 153 155 160 151 157 165 165 180 179 171 173 170 193 185 173 162 140 125 114 110 125 128 106 115 109 86 82 68 27 48 91 135 147 168
132 132 142 151 154 156 160 161 161 164 155 150 153 160 157 173 181 177 179 180 181 173 181 204 179 160 160 157 139 159 214 165 143 133 120 97 101 55 51 62 9 102 140
136 138 143 154 151 153 158 159 161 160 162 166 174 168 171 169 124 138 194 182 184 183 194 203 188 171 163 157 154 178 215 199 144 150 184 189 157 104 52 43 34 46 105
135 133 135 139 142 150 160 165 171 167 171 174 180 184 174 156 159 180 183 180 186 187 188 196 199 185 170 165 170 192 202 170 149 189 195 201 151 125 131 83 96 134 155
121 125 130 137 140 146 156 166 179 169 169 174 183 190 188 177 182 183 179 167 175 175 190 191 207 200 175 172 203 195 191 185 181 183 200 192 149 162 162 149 63 155 119
123 124 127 137 147 158 166 171 184 167 174 175 183 193 194 181 184 181 167 167 188 182 184 203 190 205 180 182 206 196 172 182 185 177 186 186 167 154 153 159 172 140 120
110 116 124 135 153 158 162 160 152 143 181 185 178 186 185 163 167 168 145 141 145 159 164 189 172 94 147 183 257 209 199 204 208 195 195 198 156 118 121 163 193 184 182
94 110 125 133 161 166 169 160 161 160 173 181 168 135 147 138 145 159 143 128 116 93 91 194 162 159 265 264 255 245 245 230 215 219 209 193 148 121 113 144 226 204 196
57 72 128 141 162 175 181 185 181 177 169 159 154 153 170 180 164 148 119 126 159 151 305 269 222 189 260 253 240 255 259 243 229 212 191 197 163 141 140 206 258 272 237
57 52 70 160 174 164 170 153 146 146 142 124 157 176 184 182 166 160 170 195 184 178 195 219 221 198 273 279 240 250 244 239 239 208 183 173 150 139 140 181 210 250 261
56 51 29 73 146 137 148 158 144 139 142 159 196 197 184 181 181 186 199 202 196 205 214 190 206 210 252 297 306 247 245 235 240 225 152 144 149 197 166 174 208 234 271
61 51 39 30 63 88 108 147 154 150 183 208 217 212 200 190 193 198 202 207 210 208 214 203 201 204 195 223 314 251 229 240 253 236 210 203 188 247 221 202 206 229 256
66 61 57 43 50 64 82 86 83 39 248 251 234 228 216 199 194 192 196 209 211 211 226 222 212 200 192 202 226 240 225 244 257 252 232 217 221 247 251 244 221 238 253
67 66 62 48 45 56 70 63 35 357 12 5 316 269 241 224 207 186 196 204 199 216 227 232 226 209 207 204 221 234 247 267 252 255 246 237 241 251 253 245 249 251 259
66 60 62 58 51 56 67 56 20 13 1 344 333 311 284 256 220 205 207 210 206 211 221 220 225 225 215 203 217 236 254 262 258 255 257 259 255 248 243 243 247 241 231
60 59 59 53 32 39 40 40 26 13 350 335 340 325 329 330 284 236 211 212 213 217 228 225 231 223 209 210 212 228 246 258 266 268 263 258 250 244 248 247 238 230 227
43 44 49 22 352 17 31 30 28 0 330 311 319 337 344 303 291 255 229 218 213 198 215 236 233 226 223 227 221 222 235 243 258 272 269 281 253 235 237 239 235 228 226
24 32 41 31 3 4 12 24 17 341 320 317 334 327 315 287 262 260 279 270 239 229 230 235 233 251 245 229 221 232 244 256 259 248 237 244 244 243 240 242 242 233 227
Height
1515 1517 1518 1519 1520 1521 1521 1522 1523 1524 1524 1525 1526 1527 1528 1528 1529 1530 1530 1531 1531 1532 1532 1532 1533 1533 1533 1534 1534 1534 1534 1535 1535 1535 1535 1535 1535 1535 1535 1535 1534 1534 1533
1513 1515 1517 1518 1520 1520 1521 1522 1523 1523 1524 1525 1526 1527 1528 1529 1529 1530 1530 1531 1532 1532 1532 1533 1533 1533 1534 1534 1534 1535 1535 1535 1535 1536 1535 1536 1537 1536 1537 1536 1535 1535 1534
1510 1513 1515 1517 1519 1520 1521 1522 1522 1523 1524 1525 1526 1527 1528 1529 1529 1530 1531 1531 1532 1532 1532 1533 1533 1534 1534 1534 1534 1535 1535 1535 1536 1536 1536 1536 1536 1537 1538 1537 1536 1536 1535
1508 1511 1514 1516 1517 1519 1520 1521 1522 1523 1523 1524 1525 1526 1527 1528 1529 1530 1531 1531 1532 1532 1532 1533 1533 1533 1534 1534 1534 1535 1535 1535 1535 1536 1536 1536 1536 1537 1537 1538 1537 1536 1535
1506 1509 1512 1514 1516 1518 1519 1520 1521 1522 1523 1524 1525 1526 1527 1528 1529 1529 1530 1531 1531 1532 1532 1532 1533 1533 1533 1534 1534 1534 1535 1535 1535 1535 1536 1536 1536 1537 1537 1537 1537 1537 1536
1505 1507 1510 1513 1515 1516 1518 1519 1520 1521 1522 1523 1524 1525 1526 1527 1527 1528 1529 1530 1530 1531 1531 1531 1532 1532 1532 1533 1533 1534 1534 1534 1535 1535 1535 1536 1536 1536 1536 1536 1536 1536 1536
1503 1505 1508 1511 1512 1514 1516 1518 1519 1520 1521 1522 1523 1524 1525 1526 1526 1527 1528 1528 1529 1529 1530 1530 1531 1531 1532 1532 1533 1533 1534 1534 1534 1535 1535 1535 1536 1536 1536 1536 1536 1536 1536
1500 1503 1506 1509 1511 1512 1514 1516 1518 1519 1520 1521 1522 1523 1524 1524 1525 1526 1526 1527 1528 1528 1529 1529 1529 1530 1531 1531 1532 1532 1533 1533 1534 1534 1535 1535 1535 1535 1535 1535 1535 1535 1536
1499 1502 1505 1507 1509 1511 1513 1514 1516 1517 1518 1519 1520 1521 1522 1523 1523 1524 1525 1526 1526 1527 1527 1528 1528 1529 1529 1530 1530 1531 1532 1533 1533 1533 1534 1534 1534 1534 1534 1534 1535 1535 1534
1498 1501 1503 1506 1508 1509 1511 1513 1514 1515 1516 1518 1519 1520 1520 1521 1522 1522 1523 1524 1524 1525 1525 1526 1526 1527 1527 1528 1529 1530 1531 1531 1532 1532 1533 1533 1533 1533 1533 1533 1533 1534 1534
1497 1500 1502 1504 1507 1508 1510 1511 1512 1514 1515 1516 1517 1518 1519 1520 1520 1521 1521 1522 1522 1523 1523 1524 1524 1525 1526 1526 1527 1528 1529 1530 1530 1531 1531 1532 1532 1532 1532 1532 1532 1532 1533
1497 1499 1501 1503 1505 1506 1508 1509 1511 1512 1513 1514 1515 1516 1517 1518 1518 1519 1519 1520 1520 1521 1521 1522 1522 1522 1523 1524 1525 1526 1527 1528 1528 1529 1529 1530 1530 1530 1530 1531 1531 1531 1531
1496 1497 1499 1501 1503 1504 1506 1507 1508 1509 1511 1512 1513 1514 1515 1515 1516 1517 1517 1518 1518 1518 1519 1519 1520 1520 1521 1522 1523 1524 1525 1526 1527 1527 1527 1528 1528 1528 1528 1529 1529 1529 1529
1494 1496 1498 1500 1501 1502 1504 1505 1506 1507 1508 1509 1510 1511 1512 1513 1514 1514 1515 1515 1516 1516 1516 1517 1517 1518 1519 1520 1521 1522 1523 1524 1524 1525 1525 1525 1526 1526 1526 1526 1526 1527 1527
1494 1495 1497 1498 1499 1501 1502 1503 1503 1504 1506 1507 1507 1508 1510 1511 1511 1512 1512 1513 1513 1513 1514 1514 1515 1515 1516 1517 1518 1520 1521 1521 1522 1522 1523 1523 1524 1524 1524 1524 1524 1524 1524
1493 1494 1495 1496 1497 1499 1500 1500 1501 1502 1503 1504 1505 1506 1507 1508 1508 1509 1510 1510 1510 1511 1511 1512 1512 1513 1513 1515 1516 1517 1518 1519 1519 1520 1520 1521 1521 1521 1521 1521 1521 1522 1522
1492 1493 1494 1495 1496 1497 1497 1498 1499 1500 1500 1501 1502 1503 1504 1504 1505 1506 1507 1507 1508 1508 1508 1509 1509 1510 1511 1512 1513 1514 1515 1515 1516 1517 1517 1518 1518 1518 1518 1518 1519 1519 1519
1491 1492 1492 1493 1494 1495 1496 1496 1497 1498 1498 1499 1499 1500 1500 1500 1501 1503 1504 1504 1505 1505 1506 1506 1506 1507 1508 1508 1509 1510 1511 1512 1512 1513 1514 1514 1515 1515 1515 1515 1515 1515 1516
1490 1491 1491 1492 1492 1493 1494 1495 1495 1495 1496 1496 1496 1497 1497 1498 1499 1499 1500 1501 1502 1502 1503 1503 1503 1504 1504 1505 1506 1507 1507 1508 1509 1510 1510 1511 1511 1511 1512 1512 1511 1511 1511
1488 1489 1489 1490 1491 1491 1492 1493 1493 1493 1493 1493 1494 1494 1495 1496 1496 1497 1498 1499 1499 1499 1500 1500 1500 1501 1501 1502 1502 1503 1503 1504 1505 1506 1507 1507 1508 1508 1508 1508 1508 1508 1508
1487 1487 1488 1488 1489 1489 1490 1490 1491 1491 1491 1491 1492 1492 1493 1493 1494 1494 1495 1496 1496 1497 1497 1497 1497 1498 1498 1498 1498 1499 1499 1500 1501 1501 1502 1503 1504 1504 1504 1504 1504 1504 1505
1486 1486 1487 1487 1487 1488 1488 1488 1488 1488 1489 1489 1489 1490 1490 1491 1491 1491 1491 1492 1493 1493 1493 1494 1494 1494 1495 1495 1495 1495 1496 1496 1497 1497 1498 1499 1500 1500 1500 1500 1501 1501 1501
1485 1486 1486 1486 1487 1487 1486 1486 1486 1486 1486 1487 1487 1487 1487 1487 1488 1488 1488 1488 1489 1489 1490 1490 1490 1490 1491 1491 1491 1491 1492 1492 1493 1493 1494 1495 1495 1496 1496 1496 1497 1497 1497
1484 1484 1485 1485 1485 1485 1485 1485 1485 1484 1484 1484 1484 1484 1484 1484 1484 1484 1484 1485 1485 1486 1486 1486 1487 1487 1487 1487 1487 1487 1488 1488 1489 1489 1490 1490 1491 1491 1491 1491 1492 1492 1492
1484 1484 1483 1483 1484 1484 1484 1484 1483 1483 1482 1482 1482 1482 1482 1481 1481 1481 1481 1481 1482 1482 1483 1483 1484 1484 1484 1484 1484 1484 1484 1484 1485 1485 1485 1485 1485 1486 1486 1486 1487 1487 1487
1483 1482 1482 1482 1482 1482 1482 1482 1481 1481 1480 1480 1480 1479 1479 1479 1478 1478 1478 1478 1479 1479 1480 1480 1481 1481 1481 1481 1481 1481 1481 1481 1481 1481 1480 1480 1480 1481 1481 1481 1481 1482 1482